User: anonymous   Login
Location: Unspecified
(0.0000°N, 0.0000°E)
Time: 18:19:28
(UTC+00:00)
Language:

DMSP F15 (USA 147) - Orbit

View from above orbital plane
View from above orbital plane
View from above satellite
View from above satellite

Ground track
Ground track

The orbit data is extracted from the following two-line orbital elements,

1 25991U 99067A   18322.19946940 0.00000000  00000-0  00000-0 0    08
2 25991  98.8804 281.7721 0010069 305.9297  54.0702 14.16550923    08
Epoch (UTC): 18 November 2018 04:47:14
Eccentricity: 0.0010069
inclination: 98.8804°
perigee height: 830 km
apogee height: 844 km
right ascension of ascending node: 281.7721°
argument of perigee: 305.9297°
revolutions per day: 14.16550923
mean anomaly at epoch: 54.0702°
orbit number at epoch: 0

The dashed part of the orbit path shows where the satellite is in the earth's shadow,  

DLR